TimePDT,TemperatureF,Dew PointF,Humidity,Sea Level PressureIn,VisibilityMPH,Wind Direction,Wind SpeedMPH,Gust SpeedMPH,PrecipitationIn,Events,Conditions,WindDirDegrees,DateUTC
12:55 AM,65.3,43.9,46,29.77,10.0,South,18.4,32.2,N/A,,Clear,180,2012-10-23 07:55:00
1:55 AM,63.7,43.9,48,29.74,10.0,South,26.5,-,N/A,,Clear,190,2012-10-23 08:55:00
2:55 AM,62.4,43.9,51,29.74,10.0,South,27.6,35.7,N/A,,Clear,180,2012-10-23 09:55:00
3:23 AM,62.6,42.8,48,29.73,7.0,SSW,35.7,42.6,N/A,,Clear,200,2012-10-23 10:23:00
3:27 AM,62.6,44.6,52,29.73,7.0,SSW,32.2,41.4,N/A,,Clear,200,2012-10-23 10:27:00
3:55 AM,61.3,43.2,51,29.73,10.0,South,21.9,-,N/A,,Clear,180,2012-10-23 10:55:00
4:55 AM,61.0,40.1,46,29.77,10.0,South,23.0,29.9,N/A,,Clear,190,2012-10-23 11:55:00
5:55 AM,60.8,38.5,44,29.79,10.0,SSW,20.7,-,N/A,,Clear,200,2012-10-23 12:55:00
6:55 AM,60.4,38.7,45,29.82,10.0,SSW,20.7,-,N/A,,Clear,200,2012-10-23 13:55:00
7:55 AM,60.4,37.9,43,29.84,10.0,SSW,19.6,27.6,N/A,,Clear,200,2012-10-23 14:55:00
8:55 AM,62.2,37.2,39,29.87,10.0,South,16.1,24.2,N/A,,Clear,190,2012-10-23 15:55:00
9:55 AM,64.0,35.1,34,29.86,10.0,South,19.6,26.5,N/A,,Clear,190,2012-10-23 16:55:00
10:55 AM,67.5,30.7,25,29.84,10.0,SSW,24.2,29.9,N/A,,Clear,210,2012-10-23 17:55:00
11:55 AM,70.2,27.7,21,29.82,10.0,SSW,21.9,29.9,N/A,,Clear,200,2012-10-23 18:55:00
12:55 PM,72.3,26.1,18,29.80,10.0,South,20.7,33.4,N/A,,Clear,180,2012-10-23 19:55:00
1:55 PM,73.6,18.3,12,29.77,10.0,SSW,25.3,-,N/A,,Clear,210,2012-10-23 20:55:00
2:55 PM,73.9,20.1,13,29.75,10.0,SSW,25.3,34.5,N/A,,Clear,200,2012-10-23 21:55:00
3:55 PM,73.4,16.2,11,29.74,10.0,SSW,28.8,-,N/A,,Clear,210,2012-10-23 22:55:00
4:55 PM,72.3,17.4,12,29.72,10.0,SSW,29.9,-,N/A,,Clear,200,2012-10-23 23:55:00
5:55 PM,70.3,21.2,16,29.73,10.0,South,20.7,31.1,N/A,,Clear,190,2012-10-24 00:55:00
6:55 PM,69.3,21.6,16,29.75,10.0,South,23.0,-,N/A,,Clear,190,2012-10-24 01:55:00
7:55 PM,68.0,24.1,19,29.76,10.0,South,28.8,33.4,N/A,,Clear,180,2012-10-24 02:55:00
8:55 PM,67.3,24.1,20,29.75,10.0,South,26.5,32.2,N/A,,Clear,190,2012-10-24 03:55:00
9:55 PM,66.4,27.9,24,29.78,10.0,SSW,24.2,-,N/A,,Clear,200,2012-10-24 04:55:00
10:55 PM,64.9,30.6,28,29.79,10.0,South,19.6,-,N/A,,Clear,180,2012-10-24 05:55:00
11:55 PM,64.2,32.5,31,29.78,10.0,South,23.0,-,N/A,,Clear,180,2012-10-24 06:55:00